| time (UTC) | temp C | wind direction | speed KPH | gust KPH | rain 1hr cm | rain 24hr cm | rain mn cm | humidity % | barometer mb |
| 20260905052721 | 15 | 348 | 3.2 | 3.2 | 0.00 | 0.00 | 0.00 | 80 | 1015.5 |
| 20260905052216 | 15 | 350 | 1.6 | 1.6 | 0.00 | 0.00 | 0.00 | 80 | 1015.6 |
| 20260905051715 | 15 | 8 | 0.0 | 0.0 | 0.00 | 0.00 | 0.00 | 80 | 1015.5 |
| 20260905051212 | 15 | 359 | 0.0 | 0.0 | 0.00 | 0.00 | 0.00 | 80 | 1015.7 |
| 20260905050708 | 15 | 27 | 0.0 | 0.0 | 0.00 | 0.00 | 0.00 | 79 | 1015.8 |
| 20260905050205 | 15 | 353 | 0.0 | 0.0 | 0.00 | 0.00 | 0.00 | 79 | 1015.6 |
| 20260905045704 | 15 | 10 | 0.0 | 0.0 | 0.00 | 0.00 | 0.00 | 79 | 1015.6 |
| 20260905045200 | 15 | 24 | 4.8 | 8.0 | 0.00 | 0.00 | 0.00 | 79 | 1015.7 |
| 20260905044655 | 15 | 70 | 3.2 | 3.2 | 0.00 | 0.00 | 0.00 | 79 | 1015.6 |
| 20260905044150 | 15 | 35 | 4.8 | 4.8 | 0.00 | 0.00 | 0.00 | 78 | 1015.6 |
| 20260905043649 | 15 | 46 | 4.8 | 4.8 | 0.00 | 0.00 | 0.00 | 77 | 1015.7 |
| 20260905043144 | 15 | 17 | 3.2 | 3.2 | 0.00 | 0.00 | 0.00 | 77 | 1015.7 |
| 20260905042643 | 15 | 51 | 6.4 | 9.7 | 0.00 | 0.00 | 0.00 | 76 | 1015.7 |
| 20260905042137 | 15 | 23 | 8.0 | 9.7 | 0.00 | 0.00 | 0.00 | 75 | 1015.6 |
| 20260905041633 | 15 | 55 | 6.4 | 9.7 | 0.00 | 0.00 | 0.00 | 75 | 1015.7 |
| 20260905041129 | 15 | 62 | 6.4 | 9.7 | 0.00 | 0.00 | 0.00 | 76 | 1015.7 |
| 20260905040629 | 15 | 72 | 3.2 | 3.2 | 0.00 | 0.00 | 0.00 | 76 | 1015.9 |
| 20260905040127 | 15 | 58 | 6.4 | 8.0 | 0.00 | 0.00 | 0.00 | 77 | 1015.7 |
| 20260905035623 | 15 | 57 | 4.8 | 8.0 | 0.00 | 0.00 | 0.00 | 77 | 1015.9 |
| 20260905035119 | 15 | 80 | 6.4 | 8.0 | 0.00 | 0.00 | 0.00 | 77 | 1015.6 |
| 20260905034614 | 15 | 75 | 1.6 | 3.2 | 0.00 | 0.00 | 0.00 | 77 | 1015.6 |
| 20260905034109 | 16 | 32 | 4.8 | 8.0 | 0.00 | 0.00 | 0.00 | 77 | 1015.6 |
| 20260905033608 | 16 | 31 | 6.4 | 9.7 | 0.00 | 0.00 | 0.00 | 76 | 1015.7 |
| 20260905033104 | 16 | 58 | 4.8 | 8.0 | 0.00 | 0.00 | 0.00 | 76 | 1015.5 |
| 20260905032604 | 16 | 68 | 9.7 | 11.3 | 0.00 | 0.00 | 0.00 | 75 | 1015.3 |
| 20260905032104 | 16 | 55 | 1.6 | 4.8 | 0.00 | 0.00 | 0.00 | 75 | 1015.7 |
| 20260905031559 | 16 | 67 | 4.8 | 4.8 | 0.00 | 0.00 | 0.00 | 74 | 1015.6 |
| 20260905031059 | 16 | 71 | 4.8 | 8.0 | 0.00 | 0.00 | 0.00 | 74 | 1015.3 |
| 20260905030554 | 16 | 63 | 4.8 | 8.0 | 0.00 | 0.00 | 0.00 | 76 | 1015.2 |
| 20260905030049 | 16 | 67 | 3.2 | 8.0 | 0.00 | 0.00 | 0.00 | 75 | 1015.3 |
| 20260905025545 | 16 | 60 | 6.4 | 9.7 | 0.00 | 0.00 | 0.00 | 74 | 1015.1 |
| 20260905025041 | 17 | 43 | 8.0 | 11.3 | 0.00 | 0.00 | 0.00 | 72 | 1015.3 |
| 20260905024536 | 17 | 75 | 1.6 | 3.2 | 0.00 | 0.00 | 0.00 | 71 | 1015.1 |
| 20260905024031 | 17 | 73 | 3.2 | 4.8 | 0.00 | 0.00 | 0.00 | 70 | 1014.8 |
| 20260905023527 | 17 | 142 | 3.2 | 3.2 | 0.00 | 0.00 | 0.00 | 70 | 1015.1 |
| 20260905023021 | 17 | 52 | 3.2 | 3.2 | 0.00 | 0.00 | 0.00 | 70 | 1015.0 |
| 20260905022521 | 17 | 64 | 4.8 | 4.8 | 0.00 | 0.00 | 0.00 | 70 | 1015.0 |
| 20260905022016 | 17 | 116 | 4.8 | 4.8 | 0.00 | 0.00 | 0.00 | 70 | 1015.1 |
| 20260905021515 | 17 | 85 | 4.8 | 8.0 | 0.00 | 0.00 | 0.00 | 69 | 1015.0 |
| 20260905021011 | 17 | 74 | 1.6 | 3.2 | 0.00 | 0.00 | 0.00 | 69 | 1015.1 |
| 20260905020505 | 17 | 97 | 9.7 | 11.3 | 0.00 | 0.00 | 0.00 | 69 | 1015.1 |
| 20260905015959 | 17 | 138 | 8.0 | 11.3 | 0.00 | 0.00 | 0.00 | 70 | 1014.9 |
| 20260905015458 | 17 | 146 | 9.7 | 12.9 | 0.00 | 0.00 | 0.00 | 70 | 1014.9 |
| 20260905014957 | 17 | 50 | 8.0 | 9.7 | 0.00 | 0.00 | 0.00 | 70 | 1015.2 |
| 20260905014453 | 18 | 56 | 6.4 | 11.3 | 0.00 | 0.00 | 0.00 | 69 | 1014.9 |
| 20260905013948 | 18 | 86 | 1.6 | 4.8 | 0.00 | 0.00 | 0.00 | 68 | 1014.7 |
| 20260905013444 | 18 | 40 | 9.7 | 14.5 | 0.00 | 0.00 | 0.00 | 66 | 1014.8 |
| 20260905012939 | 18 | 84 | 6.4 | 9.7 | 0.00 | 0.00 | 0.00 | 65 | 1014.8 |
| 20260905012434 | 20 | 128 | 14.5 | 20.9 | 0.00 | 0.00 | 0.00 | 62 | 1014.8 |
| 20260905011931 | 20 | 110 | 3.2 | 4.8 | 0.00 | 0.00 | 0.00 | 61 | 1014.5 |
| 20260905011427 | 20 | 82 | 11.3 | 12.9 | 0.00 | 0.00 | 0.00 | 59 | 1014.4 |
| 20260905010922 | 20 | 2 | 0.0 | 0.0 | 0.00 | 0.00 | 0.00 | 57 | 1014.5 |
| 20260905010417 | 21 | 47 | 3.2 | 9.7 | 0.00 | 0.00 | 0.00 | 56 | 1014.5 |
| 20260905005913 | 21 | 332 | 4.8 | 8.0 | 0.00 | 0.00 | 0.00 | 56 | 1014.2 |
| 20260905005409 | 21 | 292 | 0.0 | 0.0 | 0.00 | 0.00 | 0.00 | 56 | 1014.2 |
| 20260905004904 | 21 | 304 | 1.6 | 4.8 | 0.00 | 0.00 | 0.00 | 55 | 1014.2 |
| 20260905004403 | 22 | 318 | 3.2 | 4.8 | 0.00 | 0.00 | 0.00 | 52 | 1014.2 |
| 20260905003859 | 21 | 318 | 0.0 | 0.0 | 0.00 | 0.00 | 0.00 | 56 | 1014.0 |
| 20260905003355 | 21 | 318 | 4.8 | 9.7 | 0.00 | 0.00 | 0.00 | 53 | 1013.9 |
| 20260905002850 | 22 | 271 | 3.2 | 4.8 | 0.00 | 0.00 | 0.00 | 52 | 1013.7 |
| 20260905002350 | 21 | 318 | 1.6 | 3.2 | 0.00 | 0.00 | 0.00 | 56 | 1013.7 |
| 20260905001844 | 21 | 347 | 0.0 | 0.0 | 0.00 | 0.00 | 0.00 | 55 | 1013.9 |
| 20260905001339 | 22 | 336 | 3.2 | 4.8 | 0.00 | 0.00 | 0.00 | 52 | 1013.9 |
| 20260905000834 | 21 | 347 | 0.0 | 0.0 | 0.00 | 0.00 | 0.00 | 56 | 1013.6 |
| 20260905000329 | 21 | 302 | 0.0 | 1.6 | 0.00 | 0.00 | 0.00 | 54 | 1013.9 |
| 20260904235825 | 21 | 339 | 0.0 | 0.0 | 0.00 | 0.00 | 0.00 | 57 | 1013.9 |
| 20260904235320 | 22 | 349 | 6.4 | 9.7 | 0.00 | 0.00 | 0.00 | 54 | 1013.6 |
| 20260904234814 | 21 | 284 | 1.6 | 4.8 | 0.00 | 0.00 | 0.00 | 52 | 1013.4 |
| 20260904234309 | 22 | 317 | 1.6 | 3.2 | 0.00 | 0.00 | 0.00 | 51 | 1013.7 |
| 20260904233805 | 21 | 282 | 0.0 | 0.0 | 0.00 | 0.00 | 0.00 | 52 | 1013.7 |
| 20260904233301 | 21 | 312 | 0.0 | 1.6 | 0.00 | 0.00 | 0.00 | 54 | 1013.6 |
| 20260904232757 | 21 | 333 | 8.0 | 11.3 | 0.00 | 0.00 | 0.00 | 56 | 1013.5 |
| 20260904232253 | 21 | 326 | 8.0 | 9.7 | 0.00 | 0.00 | 0.00 | 55 | 1013.6 |
| 20260904231749 | 21 | 311 | 0.0 | 0.0 | 0.00 | 0.00 | 0.00 | 55 | 1013.4 |
| 20260904231244 | 21 | 315 | 4.8 | 11.3 | 0.00 | 0.00 | 0.00 | 54 | 1013.3 |
| 20260904230739 | 22 | 299 | 0.0 | 0.0 | 0.00 | 0.00 | 0.00 | 53 | 1013.6 |
| 20260904230233 | 21 | 350 | 0.0 | 0.0 | 0.00 | 0.00 | 0.00 | 54 | 1013.5 |
| 20260904225732 | 22 | 288 | 0.0 | 0.0 | 0.00 | 0.00 | 0.00 | 53 | 1013.5 |
| 20260904225226 | 21 | 278 | 0.0 | 0.0 | 0.00 | 0.00 | 0.00 | 54 | 1013.4 |
| 20260904224725 | 20 | 342 | 8.0 | 9.7 | 0.00 | 0.00 | 0.00 | 55 | 1013.7 |
| 20260904224221 | 21 | 279 | 1.6 | 1.6 | 0.00 | 0.00 | 0.00 | 55 | 1013.3 |
| 20260904223720 | 21 | 298 | 1.6 | 3.2 | 0.00 | 0.00 | 0.00 | 56 | 1013.5 |
| 20260904223215 | 21 | 304 | 3.2 | 4.8 | 0.00 | 0.00 | 0.00 | 54 | 1013.3 |
| 20260904222711 | 21 | 307 | 1.6 | 4.8 | 0.00 | 0.00 | 0.00 | 55 | 1013.4 |
| 20260904222207 | 21 | 342 | 8.0 | 9.7 | 0.00 | 0.00 | 0.00 | 56 | 1013.2 |
| 20260904221706 | 21 | 316 | 6.4 | 9.7 | 0.00 | 0.00 | 0.00 | 55 | 1013.5 |
| 20260904221201 | 20 | 327 | 6.4 | 8.0 | 0.00 | 0.00 | 0.00 | 58 | 1013.5 |
| 20260904220656 | 20 | 251 | 1.6 | 4.8 | 0.00 | 0.00 | 0.00 | 60 | 1013.2 |
| 20260904220151 | 20 | 1 | 3.2 | 4.8 | 0.00 | 0.00 | 0.00 | 59 | 1013.4 |
| 20260904215650 | 20 | 238 | 8.0 | 11.3 | 0.00 | 0.00 | 0.00 | 59 | 1013.4 |
| 20260904215147 | 20 | 316 | 9.7 | 12.9 | 0.00 | 0.00 | 0.00 | 60 | 1013.5 |
| 20260904214641 | 20 | 274 | 1.6 | 1.6 | 0.00 | 0.00 | 0.00 | 61 | 1013.4 |
| 20260904214137 | 21 | 326 | 6.4 | 9.7 | 0.00 | 0.00 | 0.00 | 57 | 1013.2 |
| 20260904213635 | 20 | 317 | 9.7 | 11.3 | 0.00 | 0.00 | 0.00 | 60 | 1013.4 |
| 20260904213131 | 20 | 318 | 8.0 | 11.3 | 0.00 | 0.00 | 0.00 | 59 | 1013.3 |
| 20260904212626 | 21 | 329 | 11.3 | 12.9 | 0.00 | 0.00 | 0.00 | 59 | 1013.5 |
| 20260904212121 | 21 | 317 | 1.6 | 1.6 | 0.00 | 0.00 | 0.00 | 57 | 1013.4 |
| 20260904211620 | 20 | 338 | 0.0 | 3.2 | 0.00 | 0.00 | 0.00 | 57 | 1013.3 |
| 20260904211116 | 21 | 267 | 0.0 | 0.0 | 0.00 | 0.00 | 0.00 | 59 | 1013.3 |
| 20260904210616 | 20 | 317 | 8.0 | 11.3 | 0.00 | 0.00 | 0.00 | 57 | 1013.4 |
| 20260904210111 | 20 | 304 | 1.6 | 1.6 | 0.00 | 0.00 | 0.00 | 57 | 1013.3 |
| 20260904205607 | 20 | 2 | 3.2 | 4.8 | 0.00 | 0.00 | 0.00 | 59 | 1013.3 |
| 20260904205103 | 20 | 333 | 14.5 | 17.7 | 0.00 | 0.00 | 0.00 | 57 | 1013.2 |
| 20260904204559 | 20 | 192 | 0.0 | 0.0 | 0.00 | 0.00 | 0.00 | 61 | 1013.4 |
| 20260904204055 | 20 | 348 | 4.8 | 9.7 | 0.00 | 0.00 | 0.00 | 62 | 1013.2 |
| 20260904203550 | 20 | 13 | 8.0 | 9.7 | 0.00 | 0.00 | 0.00 | 60 | 1013.5 |
| 20260904203047 | 19 | 283 | 1.6 | 3.2 | 0.00 | 0.00 | 0.00 | 62 | 1013.2 |
| 20260904202542 | 19 | 336 | 4.8 | 8.0 | 0.00 | 0.00 | 0.00 | 63 | 1013.3 |
| 20260904202039 | 20 | 250 | 6.4 | 9.7 | 0.00 | 0.00 | 0.00 | 61 | 1013.2 |
| 20260904201533 | 20 | 234 | 0.0 | 0.0 | 0.00 | 0.00 | 0.00 | 63 | 1013.2 |
| 20260904201029 | 20 | 306 | 1.6 | 3.2 | 0.00 | 0.00 | 0.00 | 63 | 1013.4 |
| 20260904200527 | 18 | 248 | 11.3 | 12.9 | 0.00 | 0.00 | 0.00 | 67 | 1013.2 |
| 20260904200023 | 19 | 249 | 3.2 | 4.8 | 0.00 | 0.00 | 0.00 | 67 | 1013.2 |
| 20260904195521 | 18 | 252 | 3.2 | 8.0 | 0.00 | 0.00 | 0.00 | 67 | 1013.1 |
| 20260904195020 | 18 | 300 | 9.7 | 14.5 | 0.00 | 0.00 | 0.00 | 68 | 1013.4 |
| 20260904194515 | 18 | 309 | 0.0 | 0.0 | 0.00 | 0.00 | 0.00 | 68 | 1013.2 |
| 20260904194010 | 18 | 238 | 11.3 | 12.9 | 0.00 | 0.00 | 0.00 | 68 | 1013.3 |
| 20260904193505 | 19 | 255 | 0.0 | 1.6 | 0.00 | 0.00 | 0.00 | 68 | 1013.5 |
| 20260904193001 | 19 | 1 | 3.2 | 3.2 | 0.00 | 0.00 | 0.00 | 68 | 1013.6 |
| 20260904192500 | 18 | 353 | 3.2 | 4.8 | 0.00 | 0.00 | 0.00 | 68 | 1013.5 |
| 20260904191957 | 18 | 313 | 0.0 | 1.6 | 0.00 | 0.00 | 0.00 | 69 | 1013.5 |
| 20260904191453 | 18 | 207 | 3.2 | 3.2 | 0.00 | 0.00 | 0.00 | 70 | 1013.4 |
| 20260904190949 | 18 | 320 | 0.0 | 1.6 | 0.00 | 0.00 | 0.00 | 72 | 1013.5 |
| 20260904190444 | 18 | 268 | 0.0 | 0.0 | 0.00 | 0.00 | 0.00 | 72 | 1013.5 |
| 20260904185940 | 18 | 262 | 0.0 | 1.6 | 0.00 | 0.00 | 0.00 | 71 | 1013.6 |
| 20260904185436 | 18 | 293 | 3.2 | 3.2 | 0.00 | 0.00 | 0.00 | 73 | 1013.7 |
| 20260904184937 | 17 | 290 | 3.2 | 3.2 | 0.00 | 0.00 | 0.00 | 74 | 1013.7 |
| 20260904184431 | 17 | 219 | 1.6 | 3.2 | 0.00 | 0.00 | 0.00 | 73 | 1013.7 |
| 20260904183926 | 17 | 245 | 1.6 | 1.6 | 0.00 | 0.00 | 0.00 | 75 | 1013.6 |
| 20260904183421 | 17 | 264 | 3.2 | 3.2 | 0.00 | 0.00 | 0.00 | 74 | 1013.6 |
| 20260904182917 | 17 | 285 | 4.8 | 4.8 | 0.00 | 0.00 | 0.00 | 75 | 1013.3 |
| 20260904182412 | 16 | 261 | 3.2 | 4.8 | 0.00 | 0.00 | 0.00 | 77 | 1013.5 |
| 20260904181906 | 17 | 279 | 1.6 | 4.8 | 0.00 | 0.00 | 0.00 | 77 | 1013.5 |
| 20260904181402 | 17 | 243 | 3.2 | 3.2 | 0.00 | 0.00 | 0.00 | 77 | 1013.4 |
| 20260904180857 | 16 | 320 | 0.0 | 0.0 | 0.00 | 0.00 | 0.00 | 79 | 1013.5 |
| 20260904180352 | 16 | 313 | 0.0 | 0.0 | 0.00 | 0.00 | 0.00 | 78 | 1013.5 |
| 20260904175852 | 17 | 256 | 1.6 | 3.2 | 0.00 | 0.00 | 0.00 | 78 | 1013.4 |
| 20260904175350 | 17 | 260 | 0.0 | 1.6 | 0.00 | 0.00 | 0.00 | 77 | 1013.4 |
| 20260904174844 | 17 | 326 | 4.8 | 4.8 | 0.00 | 0.00 | 0.00 | 75 | 1013.6 |
| 20260904174340 | 18 | 271 | 0.0 | 0.0 | 0.00 | 0.00 | 0.00 | 73 | 1013.4 |
| 20260904173836 | 18 | 270 | 0.0 | 0.0 | 0.00 | 0.00 | 0.00 | 71 | 1013.4 |
| 20260904173331 | 17 | 171 | 3.2 | 4.8 | 0.00 | 0.00 | 0.00 | 74 | 1013.4 |
| 20260904172828 | 16 | 230 | 0.0 | 0.0 | 0.00 | 0.00 | 0.00 | 78 | 1013.3 |
| 20260904172327 | 16 | 196 | 3.2 | 3.2 | 0.00 | 0.00 | 0.00 | 79 | 1013.4 |
| 20260904171822 | 16 | 186 | 8.0 | 9.7 | 0.00 | 0.00 | 0.00 | 80 | 1013.3 |
| 20260904171317 | 17 | 180 | 4.8 | 4.8 | 0.00 | 0.00 | 0.00 | 77 | 1013.4 |
| 20260904170813 | 17 | 163 | 1.6 | 1.6 | 0.00 | 0.00 | 0.00 | 79 | 1013.2 |
| 20260904170309 | 16 | 204 | 4.8 | 8.0 | 0.00 | 0.00 | 0.00 | 81 | 1013.3 |
| 20260904165809 | 16 | 208 | 1.6 | 3.2 | 0.00 | 0.00 | 0.00 | 82 | 1013.3 |
| 20260904165308 | 16 | 74 | 0.0 | 0.0 | 0.00 | 0.00 | 0.00 | 83 | 1013.4 |
| 20260904164803 | 15 | 204 | 0.0 | 0.0 | 0.00 | 0.00 | 0.00 | 85 | 1013.6 |
| 20260904164257 | 15 | 267 | 0.0 | 0.0 | 0.00 | 0.00 | 0.00 | 88 | 1013.5 |
| 20260904163754 | 14 | 258 | 0.0 | 0.0 | 0.00 | 0.00 | 0.00 | 89 | 1013.4 |
| 20260904163248 | 14 | 299 | 0.0 | 0.0 | 0.00 | 0.00 | 0.00 | 90 | 1013.3 |
| 20260904162748 | 14 | 324 | 0.0 | 0.0 | 0.00 | 0.00 | 0.00 | 91 | 1013.6 |
| 20260904162243 | 13 | 329 | 0.0 | 0.0 | 0.00 | 0.00 | 0.00 | 92 | 1013.4 |
| 20260904161739 | 13 | 314 | 0.0 | 0.0 | 0.00 | 0.00 | 0.00 | 92 | 1013.7 |
| 20260904161238 | 13 | 288 | 0.0 | 0.0 | 0.00 | 0.00 | 0.00 | 92 | 1013.2 |
| 20260904160734 | 13 | 322 | 3.2 | 3.2 | 0.00 | 0.00 | 0.00 | 92 | 1013.4 |
| 20260904160230 | 13 | 302 | 0.0 | 0.0 | 0.00 | 0.00 | 0.00 | 93 | 1013.2 |
| 20260904155729 | 13 | 305 | 0.0 | 0.0 | 0.00 | 0.00 | 0.00 | 93 | 1013.2 |
| 20260904155229 | 13 | 314 | 3.2 | 3.2 | 0.00 | 0.00 | 0.00 | 94 | 1013.1 |
| 20260904154727 | 13 | 255 | 3.2 | 4.8 | 0.00 | 0.00 | 0.00 | 94 | 1013.1 |
| 20260904154222 | 12 | 265 | 0.0 | 0.0 | 0.00 | 0.00 | 0.00 | 94 | 1013.2 |
| 20260904153718 | 12 | 297 | 1.6 | 1.6 | 0.00 | 0.00 | 0.00 | 95 | 1013.2 |
| 20260904153213 | 12 | 286 | 0.0 | 0.0 | 0.00 | 0.00 | 0.00 | 95 | 1013.2 |
| 20260904152710 | 12 | 290 | 0.0 | 0.0 | 0.00 | 0.00 | 0.00 | 95 | 1013.1 |
| 20260904152204 | 12 | 275 | 0.0 | 0.0 | 0.00 | 0.00 | 0.00 | 95 | 1013.1 |
| 20260904151659 | 12 | 292 | 0.0 | 0.0 | 0.00 | 0.00 | 0.00 | 95 | 1013.0 |
| 20260904151158 | 12 | 300 | 0.0 | 0.0 | 0.00 | 0.00 | 0.00 | 95 | 1013.0 |
| 20260904150654 | 12 | 291 | 0.0 | 0.0 | 0.00 | 0.00 | 0.00 | 95 | 1013.0 |
| 20260904150149 | 12 | 301 | 0.0 | 0.0 | 0.00 | 0.00 | 0.00 | 95 | 1012.8 |
| 20260904145648 | 12 | 301 | 0.0 | 0.0 | 0.00 | 0.00 | 0.00 | 95 | 1012.5 |
| 20260904145143 | 12 | 300 | 0.0 | 0.0 | 0.00 | 0.00 | 0.00 | 95 | 1012.6 |
| 20260904144638 | 12 | 292 | 0.0 | 0.0 | 0.00 | 0.00 | 0.00 | 95 | 1012.8 |
| 20260904144134 | 12 | 296 | 0.0 | 0.0 | 0.00 | 0.00 | 0.00 | 95 | 1012.5 |
| 20260904143630 | 12 | 282 | 0.0 | 0.0 | 0.00 | 0.00 | 0.00 | 95 | 1012.6 |
| 20260904143126 | 12 | 289 | 0.0 | 0.0 | 0.00 | 0.00 | 0.00 | 95 | 1012.7 |
| 20260904142623 | 12 | 294 | 0.0 | 0.0 | 0.00 | 0.00 | 0.00 | 95 | 1012.6 |
| 20260904142118 | 12 | 294 | 0.0 | 0.0 | 0.00 | 0.00 | 0.00 | 95 | 1012.5 |
| 20260904141613 | 12 | 301 | 0.0 | 0.0 | 0.00 | 0.00 | 0.00 | 95 | 1012.5 |
| 20260904141108 | 12 | 275 | 0.0 | 0.0 | 0.00 | 0.00 | 0.00 | 95 | 1012.4 |
| 20260904140604 | 12 | 272 | 0.0 | 0.0 | 0.00 | 0.00 | 0.00 | 95 | 1012.4 |
| 20260904140058 | 12 | 279 | 0.0 | 0.0 | 0.00 | 0.00 | 0.00 | 95 | 1012.4 |
| 20260904135557 | 12 | 281 | 0.0 | 0.0 | 0.00 | 0.00 | 0.00 | 95 | 1012.2 |
| 20260904135053 | 12 | 294 | 0.0 | 0.0 | 0.00 | 0.00 | 0.00 | 95 | 1012.2 |
| 20260904134548 | 12 | 298 | 0.0 | 0.0 | 0.00 | 0.00 | 0.00 | 95 | 1012.1 |
| 20260904134043 | 12 | 296 | 0.0 | 0.0 | 0.00 | 0.00 | 0.00 | 95 | 1012.4 |
| 20260904133537 | 12 | 290 | 0.0 | 0.0 | 0.00 | 0.00 | 0.00 | 95 | 1011.9 |
| 20260904133033 | 12 | 285 | 0.0 | 0.0 | 0.00 | 0.00 | 0.00 | 95 | 1011.8 |
| 20260904132528 | 11 | 290 | 0.0 | 0.0 | 0.00 | 0.00 | 0.00 | 95 | 1011.9 |
| 20260904132028 | 12 | 291 | 0.0 | 0.0 | 0.00 | 0.00 | 0.00 | 95 | 1011.8 |
| 20260904131527 | 12 | 291 | 0.0 | 0.0 | 0.00 | 0.00 | 0.00 | 95 | 1012.0 |
| 20260904131023 | 12 | 289 | 0.0 | 0.0 | 0.00 | 0.00 | 0.00 | 95 | 1011.7 |
| 20260904130522 | 12 | 287 | 0.0 | 0.0 | 0.00 | 0.00 | 0.00 | 95 | 1011.6 |
| 20260904130017 | 12 | 277 | 0.0 | 0.0 | 0.00 | 0.00 | 0.00 | 95 | 1011.6 |
| 20260904125514 | 12 | 274 | 0.0 | 0.0 | 0.00 | 0.00 | 0.00 | 95 | 1011.6 |
| 20260904125008 | 12 | 276 | 0.0 | 0.0 | 0.00 | 0.00 | 0.00 | 94 | 1011.6 |
| 20260904124504 | 12 | 277 | 0.0 | 0.0 | 0.00 | 0.00 | 0.00 | 94 | 1011.7 |
| 20260904123954 | 12 | 271 | 0.0 | 0.0 | 0.00 | 0.00 | 0.00 | 94 | 1011.5 |
| 20260904123448 | 11 | 282 | 0.0 | 0.0 | 0.00 | 0.00 | 0.00 | 94 | 1011.5 |
| 20260904122944 | 11 | 277 | 0.0 | 0.0 | 0.00 | 0.00 | 0.00 | 94 | 1011.7 |
| 20260904122443 | 11 | 282 | 0.0 | 0.0 | 0.00 | 0.00 | 0.00 | 94 | 1011.7 |
| 20260904121938 | 12 | 276 | 0.0 | 0.0 | 0.00 | 0.00 | 0.00 | 94 | 1011.6 |
| 20260904121434 | 11 | 284 | 0.0 | 0.0 | 0.00 | 0.00 | 0.00 | 94 | 1011.7 |
| 20260904120931 | 11 | 290 | 0.0 | 0.0 | 0.00 | 0.00 | 0.00 | 93 | 1011.5 |
| 20260904120426 | 12 | 301 | 0.0 | 0.0 | 0.00 | 0.00 | 0.00 | 93 | 1011.4 |
| 20260904115921 | 12 | 284 | 0.0 | 0.0 | 0.00 | 0.00 | 0.00 | 93 | 1011.4 |
| 20260904115416 | 12 | 283 | 0.0 | 0.0 | 0.00 | 0.00 | 0.00 | 93 | 1011.3 |
| 20260904114910 | 12 | 301 | 0.0 | 0.0 | 0.00 | 0.00 | 0.00 | 93 | 1011.1 |
| 20260904114405 | 12 | 306 | 0.0 | 0.0 | 0.00 | 0.00 | 0.00 | 93 | 1011.1 |
| 20260904113901 | 12 | 298 | 0.0 | 0.0 | 0.00 | 0.00 | 0.00 | 93 | 1011.1 |
| 20260904113401 | 12 | 305 | 0.0 | 0.0 | 0.00 | 0.00 | 0.00 | 92 | 1011.2 |
| 20260904112900 | 12 | 269 | 0.0 | 0.0 | 0.00 | 0.00 | 0.00 | 92 | 1011.0 |
| 20260904112356 | 12 | 292 | 0.0 | 0.0 | 0.00 | 0.00 | 0.00 | 92 | 1011.1 |
| 20260904111851 | 12 | 274 | 0.0 | 0.0 | 0.00 | 0.00 | 0.00 | 92 | 1011.2 |
| 20260904111347 | 12 | 262 | 0.0 | 0.0 | 0.00 | 0.00 | 0.00 | 92 | 1010.9 |
| 20260904110842 | 12 | 279 | 0.0 | 0.0 | 0.00 | 0.00 | 0.00 | 92 | 1011.0 |
| 20260904110341 | 12 | 267 | 0.0 | 0.0 | 0.00 | 0.00 | 0.00 | 92 | 1011.0 |
| 20260904105836 | 12 | 266 | 0.0 | 0.0 | 0.00 | 0.00 | 0.00 | 92 | 1010.9 |
| 20260904105331 | 12 | 271 | 0.0 | 0.0 | 0.00 | 0.00 | 0.00 | 92 | 1011.0 |
| 20260904104826 | 12 | 273 | 0.0 | 0.0 | 0.00 | 0.00 | 0.00 | 92 | 1011.1 |
| 20260904104321 | 12 | 295 | 0.0 | 0.0 | 0.00 | 0.00 | 0.00 | 91 | 1010.9 |
| 20260904103818 | 12 | 281 | 0.0 | 0.0 | 0.00 | 0.00 | 0.00 | 91 | 1010.7 |
| 20260904103318 | 12 | 289 | 0.0 | 0.0 | 0.00 | 0.00 | 0.00 | 91 | 1011.1 |
| 20260904102814 | 12 | 296 | 0.0 | 0.0 | 0.00 | 0.00 | 0.00 | 91 | 1010.8 |
| 20260904102309 | 12 | 291 | 0.0 | 0.0 | 0.00 | 0.00 | 0.00 | 92 | 1010.8 |
| 20260904101805 | 12 | 300 | 0.0 | 0.0 | 0.00 | 0.00 | 0.00 | 91 | 1010.7 |
| 20260904101301 | 12 | 304 | 0.0 | 0.0 | 0.00 | 0.00 | 0.00 | 91 | 1010.6 |
| 20260904100756 | 12 | 309 | 0.0 | 0.0 | 0.00 | 0.00 | 0.00 | 91 | 1010.8 |
| 20260904100252 | 12 | 295 | 0.0 | 0.0 | 0.00 | 0.00 | 0.00 | 91 | 1010.7 |
| 20260904095752 | 12 | 289 | 0.0 | 0.0 | 0.00 | 0.00 | 0.00 | 91 | 1010.8 |
| 20260904095247 | 13 | 294 | 0.0 | 0.0 | 0.00 | 0.00 | 0.00 | 91 | 1010.8 |
| 20260904094742 | 13 | 275 | 0.0 | 0.0 | 0.00 | 0.00 | 0.00 | 91 | 1010.7 |
| 20260904094237 | 13 | 274 | 0.0 | 0.0 | 0.00 | 0.00 | 0.00 | 91 | 1010.6 |
| 20260904093734 | 13 | 260 | 0.0 | 0.0 | 0.00 | 0.00 | 0.00 | 91 | 1010.8 |
| 20260904093233 | 13 | 284 | 0.0 | 0.0 | 0.00 | 0.00 | 0.00 | 91 | 1010.8 |
| 20260904092729 | 13 | 261 | 0.0 | 0.0 | 0.00 | 0.00 | 0.00 | 91 | 1010.7 |
| 20260904092225 | 13 | 260 | 0.0 | 0.0 | 0.00 | 0.00 | 0.00 | 92 | 1010.8 |
| 20260904091720 | 13 | 311 | 0.0 | 0.0 | 0.00 | 0.00 | 0.00 | 92 | 1010.9 |
| 20260904091215 | 13 | 305 | 0.0 | 0.0 | 0.00 | 0.00 | 0.00 | 92 | 1010.8 |
| 20260904090711 | 13 | 326 | 0.0 | 0.0 | 0.00 | 0.00 | 0.00 | 92 | 1010.8 |
| 20260904090207 | 13 | 284 | 0.0 | 0.0 | 0.00 | 0.00 | 0.00 | 91 | 1010.5 |
| 20260904085701 | 13 | 280 | 0.0 | 0.0 | 0.00 | 0.00 | 0.00 | 91 | 1010.5 |
| 20260904085156 | 13 | 304 | 0.0 | 3.2 | 0.00 | 0.00 | 0.00 | 91 | 1010.6 |
| 20260904084651 | 13 | 313 | 0.0 | 0.0 | 0.00 | 0.00 | 0.00 | 91 | 1010.4 |
| 20260904084147 | 13 | 282 | 4.8 | 8.0 | 0.00 | 0.00 | 0.00 | 91 | 1010.2 |
| 20260904083643 | 13 | 300 | 3.2 | 4.8 | 0.00 | 0.00 | 0.00 | 91 | 1010.3 |
| 20260904083140 | 13 | 300 | 0.0 | 1.6 | 0.00 | 0.00 | 0.00 | 91 | 1010.4 |
| 20260904082634 | 13 | 291 | 0.0 | 0.0 | 0.00 | 0.00 | 0.00 | 91 | 1010.6 |
| 20260904082130 | 14 | 286 | 0.0 | 0.0 | 0.00 | 0.00 | 0.00 | 90 | 1010.7 |
| 20260904081625 | 14 | 293 | 3.2 | 3.2 | 0.00 | 0.00 | 0.00 | 90 | 1010.7 |
| 20260904081120 | 14 | 295 | 3.2 | 4.8 | 0.00 | 0.00 | 0.00 | 89 | 1010.8 |
| 20260904080615 | 14 | 296 | 1.6 | 3.2 | 0.00 | 0.00 | 0.00 | 88 | 1011.0 |
| 20260904080112 | 14 | 280 | 0.0 | 0.0 | 0.00 | 0.00 | 0.00 | 87 | 1010.7 |
| 20260904075607 | 14 | 275 | 0.0 | 0.0 | 0.00 | 0.00 | 0.00 | 87 | 1010.8 |
| 20260904075107 | 14 | 287 | 0.0 | 0.0 | 0.00 | 0.00 | 0.00 | 87 | 1010.7 |
| 20260904074601 | 14 | 289 | 0.0 | 0.0 | 0.00 | 0.00 | 0.00 | 87 | 1011.0 |
| 20260904074056 | 14 | 287 | 0.0 | 0.0 | 0.00 | 0.00 | 0.00 | 86 | 1010.9 |
| 20260904073550 | 15 | 283 | 0.0 | 0.0 | 0.00 | 0.00 | 0.00 | 86 | 1010.9 |
| 20260904073047 | 15 | 274 | 0.0 | 0.0 | 0.00 | 0.00 | 0.00 | 85 | 1010.9 |
| 20260904072543 | 15 | 277 | 0.0 | 0.0 | 0.00 | 0.00 | 0.00 | 84 | 1010.5 |
| 20260904072038 | 15 | 260 | 0.0 | 0.0 | 0.00 | 0.00 | 0.00 | 83 | 1010.7 |
| 20260904071533 | 15 | 265 | 0.0 | 0.0 | 0.00 | 0.00 | 0.00 | 82 | 1010.8 |
| 20260904071028 | 15 | 266 | 0.0 | 0.0 | 0.00 | 0.00 | 0.00 | 80 | 1010.9 |
| 20260904070527 | 15 | 266 | 0.0 | 0.0 | 0.00 | 0.00 | 0.00 | 80 | 1010.6 |
| 20260904070022 | 15 | 266 | 0.0 | 0.0 | 0.00 | 0.03 | 0.03 | 80 | 1010.6 |
| 20260904065517 | 15 | 262 | 0.0 | 0.0 | 0.00 | 0.03 | 0.03 | 80 | 1010.5 |
| 20260904065013 | 15 | 249 | 0.0 | 0.0 | 0.00 | 0.03 | 0.03 | 81 | 1010.7 |
| 20260904064509 | 15 | 266 | 0.0 | 0.0 | 0.00 | 0.03 | 0.03 | 80 | 1010.5 |
| 20260904064003 | 15 | 266 | 0.0 | 0.0 | 0.00 | 0.03 | 0.03 | 80 | 1010.8 |
| 20260904063500 | 15 | 266 | 0.0 | 0.0 | 0.00 | 0.03 | 0.03 | 80 | 1010.7 |
| 20260904062954 | 15 | 266 | 0.0 | 0.0 | 0.00 | 0.03 | 0.03 | 80 | 1010.8 |
| 20260904062451 | 15 | 267 | 0.0 | 0.0 | 0.00 | 0.03 | 0.03 | 79 | 1010.8 |
| 20260904061946 | 15 | 273 | 0.0 | 0.0 | 0.00 | 0.03 | 0.03 | 79 | 1010.7 |
| 20260904061442 | 15 | 274 | 0.0 | 0.0 | 0.00 | 0.03 | 0.03 | 79 | 1010.8 |
| 20260904060938 | 15 | 274 | 0.0 | 0.0 | 0.00 | 0.03 | 0.03 | 79 | 1010.5 |
| 20260904060434 | 15 | 278 | 0.0 | 0.0 | 0.00 | 0.03 | 0.03 | 79 | 1010.5 |
| 20260904055929 | 15 | 280 | 0.0 | 0.0 | 0.00 | 0.03 | 0.03 | 79 | 1010.5 |
| 20260904055425 | 15 | 280 | 0.0 | 0.0 | 0.00 | 0.03 | 0.03 | 79 | 1010.5 |
| 20260904054921 | 15 | 283 | 0.0 | 0.0 | 0.00 | 0.03 | 0.03 | 79 | 1010.4 |
| 20260904054416 | 15 | 281 | 0.0 | 0.0 | 0.00 | 0.03 | 0.03 | 79 | 1010.5 |
| 20260904053912 | 15 | 276 | 0.0 | 0.0 | 0.00 | 0.03 | 0.03 | 79 | 1010.5 |
| 20260904053411 | 15 | 279 | 0.0 | 0.0 | 0.00 | 0.03 | 0.03 | 79 | 1010.4 |